Tracking 34094 objects as of 11-May-2026
HD Live streaming from Space Station
objects crossing your sky now

STARLINK-5796

Track STARLINK-5796 now!
10-day predictions
STARLINK-5796 is classified as:


NORAD ID: 55916
Int'l Code: 2023-037C
Perigee: 576.2 km
Apogee: 582.2 km
Inclination: 70.0 °
Period: 96.1 minutes
Semi major axis: 6950 km
RCS: Unknown
Launch date: March 17, 2023
Source: United States (US)
Launch site: AIR FORCE WESTERN TEST RANGE (AFWTR)
Your satellite tracking list
Your tracking list is empty




NASA's NSSDC Master Catalog

Two Line Element Set (TLE):
1 55916U 23037C   26130.43994897  .00000658  00000-0  62940-4 0  9990
2 55916  69.9988 148.8901 0004275 266.7733  93.2937 14.98322161172730
Source of the keplerian elements: AFSPC